Flag for Germany Weather past 2 weeks in Alsfeld, Hesse, Germany

Now
66 °F

Overcast.


Feels Like: 66 °F
Forecast: 41 / 73 °F
Wind: N/A

Location: Fritzlar


UV Index: 3 (Moderate)

Visibility: 11 mi


Pressure: 30.10 "Hg

Humidity: 48%

Dew point: 45 °F

Location of AlsfeldLocation

Historic Weather in Alsfeld

°F

Alsfeld temperature yesterday

Maximum temperature yesterday: 61 °F (at 4:00 PM)
Minimum temperature yesterday: 42 °F (at 2:00 AM)
Average temperature yesterday: 51 °F

Past Weeks' High & Low Weather Summary

 TemperatureHumidityPressure
High66 °F (Apr 20, 5:00 PM)98% (Apr 23, 12:00 AM)30.47 "Hg (Apr 23, 12:00 AM)
Low29 °F (Apr 17, 7:00 AM)35% (Apr 17, 6:00 PM)29.64 "Hg (Apr 21, 3:00 PM)
Average49 °F73%30.05 "Hg
* Reported Apr 8 1:00 PM — Apr 23 1:00 PM, Alsfeld, Weather by CustomWeather, © 2014

Note: Actual official high and low records may vary slightly from our data, if they occured in-between our weather recording intervals... More about our weather records

Advertising

Historic Weather Conditions — Data for Previous 24 hours

 ConditionsComfort  
Time TempWeatherWind HumidityBarometerVisibility
1:00 PM
Apr 23
64 °FOvercast.2 mph64%30.11 "Hg11 mi
12:00 PM57 °FOvercast.1 mph91%30.14 "Hg9 mi
11:00 AM50 °FFog.N/A98%30.15 "Hg2 mi
10:00 AM46 °FFog.N/A98%30.16 "Hg0 mi
9:00 AM44 °FFog.1 mph98%30.15 "Hg0 mi
8:00 AM44 °FFog.N/A97%30.14 "Hg0 mi
7:00 AM43 °FFog.N/A97%30.13 "Hg0 mi
6:00 AM44 °FFog.N/A98%30.12 "Hg0 mi
5:00 AM44 °FFog.1 mph98%30.11 "Hg0 mi
4:00 AM44 °FFog.1 mph98%30.09 "Hg0 mi
3:00 AM45 °FFog.No wind98%30.08 "Hg0 mi
2:00 AM45 °FFog.1 mph97%30.08 "Hg0 mi
1:00 AM46 °FFog.2 mph97%30.06 "Hg0 mi
12:00 AM47 °FFog.2 mph98%30.04 "Hg0 mi
10:00 PM
Apr 22
46 °FFog.1 mph97%30.02 "Hg1 mi
9:00 PM50 °FFog.1 mph95%29.99 "Hg11 mi
8:00 PM55 °FPartly sunny.1 mph84%29.96 "Hg25 mi
7:00 PM57 °FOvercast.1 mph77%29.95 "Hg22 mi
6:00 PM54 °FSprinkles. Overcast.2 mph86%29.95 "Hg12 mi
5:00 PM54 °FSprinkles. Overcast.3 mph79%29.94 "Hg9 mi
4:00 PM61 °FPartly sunny.3 mph64%29.90 "Hg16 mi
3:00 PM60 °FPartly sunny.5 mph68%29.90 "Hg14 mi
2:00 PM59 °FOvercast.3 mph72%29.90 "Hg12 mi
Weather by CustomWeather, © 2014

See weather overview